STARLINK-30957, 58453

Orbit data source: Space-Track

STARLINK-30957, 58453 is a payload satellite owned by SpaceX/Seattle (US) in LEO that was launched on Tue, 28 Nov 2023 UTC via an FALCON 9 launch vehicle from the Air Force Eastern Test Range (AFETR). Payload-class satellites include a variety of spacecraft equipped with specific instruments for various scientific and technological missions. These include communications satellites like Starlink; space stations such as the ISS; scientific satellites like the Hubble; Earth observation satellites from companies like Planet Labs, Umbra, and HawkEye 360; GPS; miniature CubeSats for education and research; and military/defense satellites.

Loading next visibility...
Identifier
58453, 2023-183S
Orbit
LEO
Country
Flag of USUS
Related business
Manufacturer
SpaceX/Seattle
Mission
Operational Commercial Communications
Bus & Motor
STARLINK V2M, Unknown motor
Mass
730 kg wet, ~700 kg dry
Launch date (UTC)
2023-11-28 (3 years ago)
Launch vehicle
FALCON 9
Launch site
Air Force Eastern Test Range (AFETR)
Object type
Payload
Rocket body
Debris
Shape & HBR
Box + 2 Pan, 17.7 m
Radar Cross Section
33.884 m², Large (>1 m²)

Expand to show TLE details & history
Last TLE update: 2 days ago

TLE from 2 days ago
0 STARLINK-30957
1 58453U 23183S   26171.33031745  .00001615  00000-0  68178-4 0  9992
2 58453  43.0008 181.8085 0001154 277.5070  82.5651 15.27580395142438
Epoch: 2026-06-20T07:55Z
TLE epoch observation values (Epoch: 2026-06-20T07:55:39.427Z)
Latitude
0.00001°
Longitude
154.34774°
Altitude
482.721 km
Speed
7.626 km/s
True Right ascension
12h 07m 14s
True Declination
0° 00' 00"
Sunlit
Object was in daylight at epoch
Visualization orbit readout
Latitude
Unknown
Longitude
Unknown
Altitude
Unknown
Speed
Unknown
Apparent Right ascension
Unknown
Apparent Declination
Unknown
Sunlit
N/A
Visualization observer readout
Local Sidereal Time
00:31:34
Azimuth
Unknown
Elevation
Unknown
Doppler factor
Unknown
Orbital elements
Apogee altitude
485.785 km
Perigee altitude
484.201 km
Semi-major axis
6,863.13 km
Eccentricity
0.00012
Inclination
43.0008°
RAAN
181.8085°
Arg. of periapsis
277.507°
True anomaly
82.57821°
Mean anomaly
82.5651°
Eccentric anomaly
82.57166°
Mean motion
3.81733 °/min
Orbital period
94.31 mins
BSTAR
0.000068178
Loading maneuver chart data...
Computing Atmospheric mass density...
Loading historical data...
Loading historical data...
Loading historical data...
Loading historical data...
Loading historical data...
Loading historical data...
Loading historical data...

Documentation

Showing up to 5 results
|